Location: ????????
(55.3939°N, 37.4780°E)
Time: 08:22:09
(UTC+00:00)

Cosmos 1825 Rocket - Pass Details

Date: 14 April 2026
Orbit: 596 x 624 km, 82.5° (Epoch: 9 May)

Event Time Altitude Azimuth Distance (km) Brightness Sun altitude
Rises 22:45:06 0° 349° (N) 2,865 7.9 -23.1°
Reaches altitude 10° 22:47:21 10° 353° (N) 1,954 7.0 -23.0°
Maximum altitude 22:51:38 65° 75° (ENE) 665 3.7 -22.7°
Enters shadow 22:52:26 52° 127° (SE) 748 3.8 -22.7°
